Location: Peterborough
(44.3091°N, 78.3197°W)
Time: 05:12:18
(UTC-04:00)

Tiros 1 despin weight - Pass Details

Date: 26 March 2023
Orbit: 586 x 632 km, 48.2° (Epoch: 08 June)

Event Time Altitude Azimuth Distance (km) Brightness Sun altitude
Rises 04:38:21 0° 284° (WNW) 2,854 - -25.8°
Reaches altitude 10° 04:41:18 10° 264° (W) 1,957 - -25.3°
Maximum altitude 04:44:11 17° 224° (SW) 1,556 - -24.9°
Drops below altitude 10° 04:47:07 10° 184° (S) 1,970 - -24.4°
Sets 04:50:06 0° 164° (SSE) 2,882 - -24.0°
